Regional Weather Roundup
Issued by NWS

Home | Current Version | Previous Version | Text Only | Print | Product List | Glossary On
Versions: 1 2 3 4 5 6 7 8 9 10 11 12 13 14 15 16 17 18 19 20 21 22 23 24 25 26 27 28 29 30 31 32 33 34 35 36 37 38 39 40 41 42 43 44 45 46 47 48 49 50
000
ASCA42 TJSJ 230311
RWRPR
PUERTO RICO/U.S. VIRGIN ISLANDS HOURLY WEATHER ROUNDUP
NATIONAL WEATHER SERVICE SAN JUAN PR
1100 PM AST TUE JUL 22 2014

PRZ001-004-230400-
PUERTO RICO

CITY           SKY/WX    TMP DP  RH WIND       PRES   REMARKS
SAN JUAN LMM   PTCLDY    82  75  78 E9        30.09R
PONCE          MOCLDY    81  72  74 CALM      30.01
AGUADILLA      CLEAR     79  70  73 CALM      30.09R
CEIBA          MOCLDY    82  73  74 E10       30.12R
$$

PRZ006-007-230400-
U.S. VIRGIN ISLANDS

CITY           SKY/WX    TMP DP  RH WIND       PRES   REMARKS
CHARLOTTE AMA  CLEAR     82  75  78 E10       30.09R
CHRISTIANSTED  PTCLDY    81  73  78 E10       30.09S
$$

HOURLY WEATHER ROUNDUP FOR THE NEWS MEDIA

CITY           SKY/WX    TMP DP  RH WIND       PRES   REMARKS
MIAMI          MOCLDY    83  74  74 SE6       30.08R
ORLANDO        CLOUDY    76  74  93 SE5       30.09R
NEW YORK       PTCLDY    75  65  70 SW12      30.07F
NEWARK         PTCLDY    77  65  66 S13       30.06S
CHICAGO        CLOUDY    84  73  69 SW9       29.94F HX  90
HARTFORD       CLEAR     71  65  81 SW10      30.03F
BOSTON         PTCLDY    77  67  71 SW13      30.00F
DALLAS         CLEAR     87  69  54 E5        30.04R HX  91
PHILADELPHIA   CLEAR     76  56  49 SW7       30.09F


USA.gov is the U.S. government's official web portal to all federal, state and local government web resources and services.